GW6273 Weather Reports


time (UTC)temp
F
wind
direction
speed
knots
gust
knots
rain 1hr
in
rain 24hr
in
rain mn
in
humidity
%
barometer
mb
20260505093025 51 69 0.0 0.0 0.00 0.00 0.00 82 983.0
20260505092525 51 235 0.0 0.9 0.00 0.00 0.00 82 983.1
20260505092015 51 24 1.7 1.7 0.00 0.00 0.00 80 983.1
20260505091510 51 147 0.0 0.0 0.00 0.00 0.00 80 983.2
20260505091004 51 124 0.0 0.0 0.00 0.00 0.00 79 983.1
20260505090601 52 89 0.0 1.7 0.00 0.00 0.00 79 983.3
20260505090055 52 131 0.0 0.9 0.00 0.00 0.00 80 983.5
20260505085550 52 110 0.0 0.9 0.00 0.00 0.00 78 983.2
20260505085046 52 124 0.0 0.9 0.00 0.00 0.00 78 983.2
20260505084540 52 123 1.7 1.7 0.00 0.00 0.00 80 983.3
20260505084040 52 63 0.0 1.7 0.00 0.00 0.00 79 983.4
20260505083530 52 119 0.0 1.7 0.00 0.00 0.00 79 983.2
20260505083025 52 139 0.0 0.9 0.00 0.00 0.00 80 983.2
20260505082520 52 135 0.0 0.9 0.00 0.00 0.00 80 983.4
20260505082015 52 79 1.7 1.7 0.00 0.00 0.00 81 983.1
20260505081515 52 44 0.0 0.9 0.00 0.00 0.00 81 983.1
20260505081005 51 57 2.6 2.6 0.00 0.00 0.00 80 983.2
20260505080056 51 154 0.0 1.7 0.00 0.00 0.00 82 983.1
20260505075551 51 115 0.9 1.7 0.00 0.00 0.00 82 982.9
20260505075046 51 103 0.9 0.9 0.00 0.00 0.00 82 982.8
20260505074541 51 113 0.0 0.9 0.00 0.00 0.00 81 982.9
20260505074036 52 113 0.0 0.9 0.00 0.00 0.00 80 982.8
20260505073531 52 66 0.0 0.0 0.00 0.00 0.00 79 982.8
20260505073026 52 107 0.0 0.9 0.00 0.00 0.00 78 982.9
20260505072521 52 336 0.0 0.0 0.00 0.00 0.00 78 982.9
20260505072016 52 326 0.0 0.0 0.00 0.00 0.00 79 983.0
20260505071511 52 303 0.0 0.9 0.00 0.00 0.00 78 983.0
20260505071011 52 102 0.9 1.7 0.00 0.00 0.00 77 982.8
20260505070501 52 65 0.0 0.9 0.00 0.00 0.00 78 982.7
20260505070056 52 304 0.0 0.0 0.00 0.00 0.00 79 983.0
20260505065552 52 76 0.0 0.9 0.00 0.00 0.00 78 982.7
20260505065046 52 49 0.0 0.0 0.00 0.00 0.00 77 982.8
20260505064547 53 55 0.0 0.0 0.00 0.00 0.00 78 982.9
20260505064036 53 68 0.0 0.9 0.00 0.00 0.00 77 982.9
20260505063532 53 72 0.0 0.9 0.00 0.00 0.00 77 982.8
20260505063032 54 113 0.0 0.0 0.00 0.00 0.00 76 983.0
20260505062522 53 230 0.0 0.0 0.00 0.00 0.00 76 983.1
20260505062017 53 66 0.0 0.0 0.00 0.00 0.00 77 983.0
20260505061512 54 50 0.0 0.0 0.00 0.00 0.00 76 983.0
20260505061007 54 119 0.0 0.9 0.00 0.00 0.00 76 983.0
20260505060502 54 126 0.0 1.7 0.00 0.00 0.00 76 982.9
20260505060057 54 135 0.0 0.0 0.00 0.00 0.00 76 983.1
20260505055553 54 88 0.9 1.7 0.00 0.00 0.00 75 983.0
20260505055047 54 212 0.0 0.9 0.00 0.00 0.00 75 983.0
20260505054542 54 122 0.0 0.0 0.00 0.00 0.00 74 983.1
20260505054038 54 141 0.0 0.9 0.00 0.00 0.00 74 983.3
20260505053534 54 105 0.0 1.7 0.00 0.00 0.00 75 983.2
20260505053028 54 304 0.0 0.0 0.00 0.00 0.00 76 983.3
20260505052524 54 119 0.0 0.0 0.00 0.00 0.00 77 983.4
20260505052018 54 145 0.0 0.0 0.00 0.00 0.00 76 983.2
20260505051513 54 66 0.0 0.0 0.00 0.00 0.00 75 983.1
20260505051008 54 66 0.0 1.7 0.00 0.00 0.00 74 983.2
20260505050503 54 89 0.0 0.9 0.00 0.00 0.00 74 983.2
20260505041514 56 93 0.0 1.7 0.00 0.00 0.00 71 983.2
20260505041009 56 122 0.0 0.0 0.00 0.00 0.00 72 983.3
20260505040504 56 25 0.0 0.0 0.00 0.00 0.00 71 983.1
20260505040100 56 30 0.0 0.0 0.00 0.00 0.00 72 983.0
20260505035555 56 101 0.0 0.9 0.00 0.00 0.00 70 982.9
20260505035050 56 50 0.0 0.9 0.00 0.00 0.00 70 983.1
20260505034545 57 55 0.0 0.0 0.00 0.00 0.00 69 983.2
20260505034045 57 120 0.0 0.0 0.00 0.00 0.00 68 983.2
20260505033541 57 129 0.0 0.0 0.00 0.00 0.00 67 983.2
20260505033031 58 66 0.0 0.0 0.00 0.00 0.00 68 983.1
20260505032526 58 142 0.0 0.0 0.00 0.00 0.00 67 983.1
20260505032020 58 142 0.0 0.9 0.00 0.00 0.00 67 983.1
20260505031516 58 125 0.0 0.9 0.00 0.00 0.00 66 983.0
20260505031010 58 144 0.0 0.9 0.00 0.00 0.00 67 983.2
20260505030506 58 131 0.0 0.9 0.00 0.00 0.00 65 983.2
20260505025556 59 129 0.0 0.9 0.00 0.00 0.00 64 983.3
20260505025052 59 66 0.0 0.0 0.00 0.00 0.00 64 983.3
20260505024546 60 66 0.0 0.0 0.00 0.00 0.00 63 983.1
20260505024046 60 129 0.0 0.9 0.00 0.00 0.00 62 983.3
20260505023536 60 315 0.0 0.0 0.00 0.00 0.00 62 983.2
20260505023031 60 125 1.7 1.7 0.00 0.00 0.00 60 983.1
20260505022525 61 130 0.0 0.9 0.00 0.00 0.00 61 983.1
20260505022026 61 309 0.0 0.9 0.00 0.00 0.00 60 982.9
20260505021516 61 202 0.0 0.9 0.00 0.00 0.00 59 983.2
20260505021016 61 135 0.9 1.7 0.00 0.00 0.00 59 983.2
20260505020506 61 126 0.9 0.9 0.00 0.00 0.00 60 983.1
20260505020001 61 135 0.0 0.9 0.00 0.00 0.00 61 983.1
20260505015556 62 142 0.0 0.0 0.00 0.00 0.00 59 982.8
20260505015051 62 129 0.0 0.9 0.00 0.00 0.00 60 982.9
20260505014546 62 180 0.0 1.7 0.00 0.00 0.00 58 982.6
20260505014042 62 129 0.0 0.0 0.00 0.00 0.00 59 982.8
20260505013537 62 150 0.0 0.9 0.00 0.00 0.00 57 982.9
20260505013032 63 147 0.0 0.9 0.00 0.00 0.00 56 982.6
20260505012527 63 139 0.0 0.0 0.00 0.00 0.00 54 982.9
20260505012021 63 125 0.0 0.0 0.00 0.00 0.00 53 982.7
20260505011517 64 135 0.0 0.0 0.00 0.00 0.00 54 982.7
20260505011012 64 129 0.0 0.0 0.00 0.00 0.00 53 982.7
20260505010512 64 129 0.0 0.9 0.00 0.00 0.00 53 982.5
20260505010006 65 168 0.0 0.9 0.00 0.00 0.00 52 982.5
20260505005558 65 135 0.0 0.9 0.00 0.00 0.00 51 982.4
20260505005052 66 136 0.9 0.9 0.00 0.00 0.00 51 982.4
20260505004548 66 129 0.0 0.9 0.00 0.00 0.00 49 982.4
20260505004042 67 164 0.0 1.7 0.00 0.00 0.00 49 982.3
20260505003538 67 147 0.0 1.7 0.00 0.00 0.00 47 982.3
20260505003033 68 143 0.0 0.9 0.00 0.00 0.00 46 982.3
20260505002528 68 173 0.0 0.0 0.00 0.00 0.00 46 982.1
20260505002023 69 195 0.0 0.9 0.00 0.00 0.00 45 982.1
20260505001518 70 173 0.0 0.9 0.00 0.00 0.00 43 982.1
20260505001013 70 202 0.0 0.9 0.00 0.00 0.00 44 982.3
20260505000513 71 168 0.0 0.9 0.00 0.00 0.00 41 982.1
20260505000003 72 199 0.9 0.9 0.00 0.00 0.00 41 982.0
20260504235559 72 200 0.0 0.9 0.00 0.00 0.00 40 981.9
20260504235054 73 180 0.0 0.9 0.00 0.00 0.00 38 981.9
20260504234549 73 212 0.0 1.7 0.00 0.00 0.00 37 982.1
20260504234044 73 199 0.9 1.7 0.00 0.00 0.00 39 982.0
20260504233539 74 196 1.7 1.7 0.00 0.00 0.00 39 981.9
20260504233034 74 214 0.0 1.7 0.00 0.00 0.00 38 982.0
20260504232529 75 224 0.0 1.7 0.00 0.00 0.00 36 982.2
20260504232029 75 300 1.7 1.7 0.00 0.00 0.00 35 982.1
20260504231518 75 212 0.0 1.7 0.00 0.00 0.00 36 982.0
20260504231014 75 290 0.0 3.5 0.00 0.00 0.00 36 982.1
20260504230508 76 319 0.9 3.5 0.00 0.00 0.00 33 982.3
20260504230004 77 223 1.7 1.7 0.00 0.00 0.00 34 982.4
20260504225600 77 89 1.7 2.6 0.00 0.00 0.00 33 982.2
20260504225055 78 225 0.0 1.7 0.00 0.00 0.00 31 982.2
20260504224550 78 138 0.9 1.7 0.00 0.00 0.00 31 982.1
20260504224045 79 27 1.7 3.5 0.00 0.00 0.00 31 982.3
20260504223541 79 127 1.7 4.3 0.00 0.00 0.00 33 982.4
20260504223036 79 249 0.9 7.8 0.00 0.00 0.00 32 982.3
20260504222530 80 123 0.0 3.5 0.00 0.00 0.00 31 982.3
20260504222026 79 253 1.7 2.6 0.00 0.00 0.00 33 982.4
20260504221521 78 82 1.7 3.5 0.00 0.00 0.00 34 982.2
20260504221016 79 301 1.7 3.5 0.00 0.00 0.00 34 982.2
20260504220511 78 197 0.0 1.7 0.00 0.00 0.00 36 982.3
20260504220005 77 245 0.0 1.7 0.00 0.00 0.00 36 982.4
20260504215101 77 259 1.7 1.7 0.00 0.00 0.00 33 982.1
20260504214551 78 318 2.6 2.6 0.00 0.00 0.00 31 982.3
20260504214051 78 60 0.9 3.5 0.00 0.00 0.00 32 982.1
20260504213542 77 204 0.0 1.7 0.00 0.00 0.00 34 982.1
20260504213041 76 283 0.0 1.7 0.00 0.00 0.00 36 982.2
20260504212532 77 147 1.7 2.6 0.00 0.00 0.00 36 982.2
20260504212032 77 154 0.0 1.7 0.00 0.00 0.00 35 982.2
20260504211527 79 89 0.0 3.5 0.00 0.00 0.00 30 982.2
20260504211016 80 318 2.6 4.3 0.00 0.00 0.00 28 982.2
20260504210512 79 275 1.7 1.7 0.00 0.00 0.00 31 982.1
20260504210006 77 232 0.0 1.7 0.00 0.00 0.00 33 982.3
20260504205501 77 139 1.7 4.3 0.00 0.00 0.00 34 982.4
20260504205058 77 336 0.0 2.6 0.00 0.00 0.00 32 982.4
20260504204552 77 232 1.7 3.5 0.00 0.00 0.00 32 982.6
20260504204048 78 81 1.7 5.2 0.00 0.00 0.00 30 982.6
20260504203542 79 258 2.6 5.2 0.00 0.00 0.00 30 982.5
20260504203037 79 139 0.9 3.5 0.00 0.00 0.00 29 982.6
20260504202532 79 289 2.6 3.5 0.00 0.00 0.00 31 982.7
20260504202032 78 300 0.9 3.5 0.00 0.00 0.00 28 982.5
20260504201527 78 117 1.7 3.5 0.00 0.00 0.00 28 983.0
20260504201017 78 265 0.0 6.1 0.00 0.00 0.00 27 982.8
20260504200517 79 289 8.7 8.7 0.00 0.00 0.00 29 982.8
20260504200012 78 259 1.7 2.6 0.00 0.00 0.00 28 983.1
20260504195501 79 240 0.9 4.3 0.00 0.00 0.00 30 983.0
20260504195057 78 232 2.6 2.6 0.00 0.00 0.00 29 982.8
20260504194553 78 94 4.3 5.2 0.00 0.00 0.00 30 983.1
20260504194048 79 95 1.7 4.3 0.00 0.00 0.00 29 983.1
20260504193544 81 283 2.6 4.3 0.00 0.00 0.00 30 983.2
20260504193044 81 180 1.7 3.5 0.00 0.00 0.00 29 983.3
20260504192533 79 227 1.7 4.3 0.00 0.00 0.00 32 983.4
20260504192033 80 331 2.6 3.5 0.00 0.00 0.00 31 983.3
20260504191523 79 95 0.0 4.3 0.00 0.00 0.00 33 983.6
20260504191018 79 349 1.7 2.6 0.00 0.00 0.00 31 983.6
20260504190518 80 146 1.7 3.5 0.00 0.00 0.00 31 983.8
20260504190008 78 101 1.7 3.5 0.00 0.00 0.00 31 983.6
20260504185503 78 229 3.5 3.5 0.00 0.00 0.00 29 983.7
20260504185059 76 124 0.0 3.5 0.00 0.00 0.00 31 983.9
20260504184555 77 85 3.5 4.3 0.00 0.00 0.00 31 984.0
20260504184049 77 328 2.6 7.0 0.00 0.00 0.00 31 983.9
20260504183545 77 304 2.6 3.5 0.00 0.00 0.00 32 984.0
20260504183039 78 252 3.5 3.5 0.00 0.00 0.00 30 984.2
20260504182534 77 264 0.9 2.6 0.00 0.00 0.00 30 984.3
20260504182030 76 222 1.7 3.5 0.00 0.00 0.00 33 984.2
20260504181524 76 103 3.5 4.3 0.00 0.00 0.00 33 984.3
20260504181019 77 66 0.0 2.6 0.00 0.00 0.00 30 984.6
20260504180515 77 168 1.7 3.5 0.00 0.00 0.00 30 984.4
20260504180014 76 319 1.7 2.6 0.00 0.00 0.00 34 984.5
20260504175510 77 313 3.5 5.2 0.00 0.00 0.00 31 984.6
20260504175100 76 221 1.7 4.3 0.00 0.00 0.00 32 984.6
20260504174555 76 297 1.7 4.3 0.00 0.00 0.00 35 984.7
20260504174055 75 75 1.7 3.5 0.00 0.00 0.00 36 984.5
20260504173551 74 272 1.7 6.1 0.00 0.00 0.00 34 984.9
20260504173041 75 211 3.5 5.2 0.00 0.00 0.00 33 985.0
20260504172540 76 12 0.9 5.2 0.00 0.00 0.00 34 985.0
20260504172030 75 122 2.6 3.5 0.00 0.00 0.00 32 984.9
20260504171526 75 333 2.6 3.5 0.00 0.00 0.00 37 984.9
20260504171021 75 195 2.6 4.3 0.00 0.00 0.00 34 985.1
20260504170515 74 116 1.7 6.1 0.00 0.00 0.00 34 985.1
20260504151021 68 285 1.7 5.2 0.00 0.00 0.00 43 986.2
20260504150521 68 223 0.9 4.3 0.00 0.00 0.00 44 986.2
20260504141022 66 298 2.6 4.3 0.00 0.00 0.00 46 986.7
20260504140518 66 215 2.6 3.5 0.00 0.00 0.00 47 986.5
20260504130519 61 179 0.0 0.9 0.00 0.00 0.00 63 986.6
20260504110521 43 94 0.9 1.7 0.00 0.00 0.00 94 985.8
20260504100527 45 49 0.0 0.9 0.00 0.00 0.00 91 985.7